Location: Unspecified
(0.0000°N, 0.0000°E)
Time: 17:23:08
(UTC+00:00)

Vanguard 2 Rocket - Pass Details

Date: 18 January 2020
Orbit: 554 x 3327 km, 32.9° (Epoch: 20 February)

Event Time Altitude Azimuth Distance (km) Brightness Sun altitude
Rises 10:06:34 0° 333° (NNW) 4,902 10.3 53.4°
Reaches altitude 10° 10:11:50 10° 356° (N) 4,482 10.3 54.5°
Maximum altitude 10:18:32 15° 27° (NNE) 4,685 10.6 55.8°
Drops below altitude 10° 10:26:48 10° 57° (ENE) 5,721 11.2 57.4°
Sets 10:35:25 0° 77° (ENE) 7,151 11.7 59.0°
